2021�N�x�@��C������Ԃɂ�鑪�茋��,,,,,,,,,,,,,,,
,,,,,,,,,,,,,,,
�P�@����n�_,,,,,,,,,,,,,,,
�������t�؁i�������厚�t�؎���v511-1),,,,,,,,,,,,,,,
,,,,,,,,,,,,,,,
�Q�@���Ԓl�i�m��l�j��2021�N7��13���`2021�N7��28��,,,,,,,,,,,,,,,
,,,,,,,,,,,,,,,
,�N,��,��,��,SO2,SPM,Ox,CO,NO,NO2,PM2.5,���x,���x,����,����
,,,,,ppm,mg/m3,ppm,ppm,ppm,ppm,��g/m3,��,%,�ő�,m/s
H03,2021,7,13,1,***,0.014,0.008,***,***,***,6,21.4,98.5,CALM,0.2
H03,2021,7,13,2,0.001,0.017,0.008,0.2,0,0.006,6,21.3,98.9,CALM,0.1
H03,2021,7,13,3,0.001,0.015,0.009,0.2,0,0.006,6,21,98.8,CALM,0
H03,2021,7,13,4,0.001,0.016,0.009,0.2,0.001,0.007,7,21.2,97.4,NE,0.8
H03,2021,7,13,5,0.001,0.016,0.006,0.2,0.001,0.006,6,20.3,98.9,WSW,0.3
H03,2021,7,13,6,0.001,0.017,0.004,0.2,0.002,0.006,5,21.8,96.8,CALM,0.2
H03,2021,7,13,7,0.001,0.014,0.012,0.2,0.004,0.006,2,23.7,84.6,W,1.1
H03,2021,7,13,8,0.001,0.016,0.021,0.2,0.004,0.007,9,26.4,69.7,WNW,1.5
H03,2021,7,13,9,0.001,0.013,0.031,0.2,0.003,0.007,7,27.9,59.5,NNE,1
H03,2021,7,13,10,0.001,0.009,0.035,0.2,0.003,0.007,4,29.5,55.4,N,1.4
H03,2021,7,13,11,0.001,0.016,0.056,0.2,0.001,0.006,7,30.6,52.3,NW,1.1
H03,2021,7,13,12,0.001,0.015,0.065,0.2,0.001,0.005,10,32.3,48.6,NW,1.4
H03,2021,7,13,13,0.001,0.015,0.069,0.2,0.001,0.004,8,32.8,49.5,NW,1.2
H03,2021,7,13,14,0.001,0.026,0.079,0.2,0,0.006,12,32.6,52.8,WSW,2.4
H03,2021,7,13,15,0.001,0.02,0.077,0.2,0,0.005,10,33.4,47.8,WSW,2.9
H03,2021,7,13,16,0.001,0.018,0.066,0.2,0,0.004,10,33.5,46.7,W,2.7
H03,2021,7,13,17,0.001,0.017,0.058,0.2,0,0.004,11,32.9,48.8,WSW,2.5
H03,2021,7,13,18,0.001,0.014,0.049,0.2,0,0.005,9,32.3,46.9,WNW,3.7
H03,2021,7,13,19,0.001,0.022,0.046,0.2,0.001,0.003,9,28.7,65.9,ENE,2.7
H03,2021,7,13,20,0.001,0.018,0.045,0.2,0,0.005,9,26.7,77.4,E,1.7
H03,2021,7,13,21,0.001,0.011,0.043,0.2,0,0.004,8,25.8,79,ESE,1.2
H03,2021,7,13,22,0.001,0.009,0.041,0.2,0,0.004,6,25.7,81.4,E,1
H03,2021,7,13,23,0.001,0.007,0.037,0.2,0,0.005,4,24.6,81.9,ESE,0.7
H03,2021,7,13,24,0.001,0.008,0.037,0.2,0,0.004,6,24.3,80.2,ESE,1.3
H03,2021,7,14,1,0,0.009,0.03,0.2,0,0.004,5,24,86,ESE,0.9
H03,2021,7,14,2,0.001,0.01,0.025,0.2,0,0.005,4,23.6,85.8,ESE,0.8
H03,2021,7,14,3,0.001,0.011,0.025,0.2,0,0.005,6,24,84.2,E,0.7
H03,2021,7,14,4,0.001,0.011,0.02,0.2,0,0.005,5,23.3,86.9,CALM,0.2
H03,2021,7,14,5,0.001,0.014,0.017,0.2,0,0.005,4,22.8,91.6,W,0.5
H03,2021,7,14,6,0.001,0.012,0.013,0.2,0.001,0.005,6,24,87.2,CALM,0
H03,2021,7,14,7,0.001,0.013,0.019,0.2,0.002,0.006,5,26.2,72.5,W,0.8
H03,2021,7,14,8,0.001,0.021,0.037,0.2,0.002,0.009,8,27.1,65.5,NNE,1
H03,2021,7,14,9,0.001,0.018,0.038,0.3,0.002,0.011,11,28.6,56.3,NE,1.1
H03,2021,7,14,10,0.002,0.025,0.041,0.5,0.004,0.015,15,29.3,63.4,SSW,0.9
H03,2021,7,14,11,0.002,0.027,0.055,0.4,0.003,0.013,14,30.5,59.5,SSE,1.7
H03,2021,7,14,12,0.001,0.021,0.063,0.2,0.001,0.005,9,30.5,61.5,SSE,2.5
H03,2021,7,14,13,0.001,0.023,0.062,0.2,0,0.004,10,29.9,63.4,SSE,2
H03,2021,7,14,14,0.001,0.026,0.062,0.2,0.001,0.005,10,28.9,68.7,SSE,2.2
H03,2021,7,14,15,0.001,0.019,0.055,0.2,0.001,0.004,7,30.2,60.9,SSW,2.4
H03,2021,7,14,16,0.001,0.019,0.054,0.2,0,0.003,6,29.1,69,SSE,2.1
H03,2021,7,14,17,0.001,0.018,0.052,0.2,0,0.004,7,28.5,70.7,S,1.8
H03,2021,7,14,18,0.001,0.016,0.05,0.2,0,0.004,7,27.9,71.9,SE,2.3
H03,2021,7,14,19,0.001,0.018,0.045,0.2,0,0.006,8,27.1,75.6,ESE,1.9
H03,2021,7,14,20,0.001,0.007,0.056,0.2,0,0.004,7,23.6,94,E,0.9
H03,2021,7,14,21,0.001,0.005,0.048,0.2,0,0.004,4,23.4,87.7,ENE,1.6
H03,2021,7,14,22,0.001,0.009,0.045,0.2,0,0.005,4,23.1,92.7,ESE,1
H03,2021,7,14,23,0.001,0.01,0.036,0.2,0,0.007,4,23.6,94.9,SE,0.5
H03,2021,7,14,24,0.001,0.011,0.03,0.2,0,0.007,5,22.8,95.3,NNW,0.6
H03,2021,7,15,1,0.001,0.008,0.026,0.2,0,0.005,5,22.8,94.9,CALM,0.2
H03,2021,7,15,2,0.001,0.011,0.024,0.2,0,0.005,4,23,93.7,NE,0.8
H03,2021,7,15,3,0.001,0.016,0.019,0.2,0.001,0.007,5,23.5,94.8,ENE,0.4
H03,2021,7,15,4,0.001,0.013,0.033,0.2,0,0.006,4,22.2,99.1,CALM,0.2
H03,2021,7,15,5,0.001,0.011,0.048,0.2,0,0.003,4,22.2,99.1,CALM,0.2
H03,2021,7,15,6,0.001,0.01,0.047,0.2,0.001,0.004,5,22.8,99.1,CALM,0.2
H03,2021,7,15,7,0.001,0.012,0.047,0.2,0.001,0.006,3,23.6,88.1,NE,0.5
H03,2021,7,15,8,0.001,0.012,0.042,0.2,0.002,0.007,4,26,76,N,0.9
H03,2021,7,15,9,0.001,0.012,0.044,0.2,0.002,0.006,4,26.9,66.4,N,0.5
H03,2021,7,15,10,0.001,0.013,0.052,0.2,0.001,0.004,5,27.5,66.5,SW,0.7
H03,2021,7,15,11,0.001,0.019,0.059,0.2,0.001,0.004,10,27.8,67.2,WSW,1.9
H03,2021,7,15,12,0.001,0.019,0.053,0.3,0.001,0.008,11,28.2,67.9,NNE,1.4
H03,2021,7,15,13,0.001,0.013,0.052,0.2,0.001,0.005,7,23.1,99.1,WSW,1.1
H03,2021,7,15,14,0.001,0.013,0.046,0.2,0.001,0.004,7,25.1,93.4,N,0.8
H03,2021,7,15,15,0,0.017,0.044,0.2,0.006,0.005,5,24.6,98.4,N,0.8
H03,2021,7,15,16,0.001,0.016,0.046,0.2,0.003,0.008,5,28.1,78,ENE,1.3
H03,2021,7,15,17,0.001,0.019,0.047,0.2,0.001,0.008,7,27.5,81.6,ESE,0.6
H03,2021,7,15,18,0.001,0.007,0.044,0.1,0,0.004,3,27.5,70.1,SSE,2.1
H03,2021,7,15,19,0.001,0.004,0.031,0.1,0,0.003,3,26.2,80.6,SSE,1.2
H03,2021,7,15,20,0.001,0.008,0.027,0.1,0,0.005,4,24.8,88.3,S,0.5
H03,2021,7,15,21,0.001,0.008,0.02,0.2,0,0.006,4,23.6,96.8,CALM,0
H03,2021,7,15,22,0.001,0.013,0.013,0.2,0,0.008,4,23.6,97.8,CALM,0
H03,2021,7,15,23,0,0.015,0.007,0.2,0.001,0.009,3,23.4,98,CALM,0
H03,2021,7,15,24,0.001,0.011,0.009,0.2,0.001,0.008,3,23.6,93.8,NE,0.4
H03,2021,7,16,1,0,0.013,0.006,0.2,0,0.005,4,23,96.7,N,0.4
H03,2021,7,16,2,0,0.013,0.005,0.2,0,0.005,4,23.6,93.5,ENE,0.6
H03,2021,7,16,3,0.001,0.015,0.006,0.1,0,0.004,3,23.4,91.4,ENE,0.7
H03,2021,7,16,4,0.001,0.011,0.005,0.1,0.001,0.004,3,22.8,93.5,NNW,0.5
H03,2021,7,16,5,0.001,0.016,0.004,0.1,0,0.003,5,22.8,95.4,CALM,0.2
H03,2021,7,16,6,0.001,0.014,0.004,0.2,0.002,0.006,5,23.6,89.2,NNE,0.4
H03,2021,7,16,7,0.001,0.012,0.007,0.2,0.006,0.007,4,25.1,81.5,N,0.7
H03,2021,7,16,8,0.001,0.014,0.01,0.2,0.007,0.008,5,25.8,73.6,N,1.1
H03,2021,7,16,9,0.001,0.015,0.014,0.2,0.005,0.007,4,27.8,63.1,NE,0.8
H03,2021,7,16,10,0.001,0.011,0.021,0.1,0.002,0.003,7,29.4,57.5,SSW,0.7
H03,2021,7,16,11,0.001,0.009,0.026,0.1,0.001,0.004,7,31.4,59.1,SE,1.8
H03,2021,7,16,12,0.001,0.007,0.02,0.1,0.001,0.003,3,30.7,63.9,SSW,2.6
H03,2021,7,16,13,0.001,0.007,0.024,0.1,0.001,0.002,6,33.1,54.6,SE,3.7
H03,2021,7,16,14,0.001,0.009,0.023,0.1,0.001,0.002,3,32.3,59.9,S,2.6
H03,2021,7,16,15,0.001,0.009,0.024,0.1,0.001,0.002,3,32.1,58.8,SSE,2.7
H03,2021,7,16,16,0.001,0.009,0.022,0.1,0.001,0.002,3,32.1,55.3,SE,3.1
H03,2021,7,16,17,0.001,0.012,0.019,0.1,0.001,0.003,4,30.2,59.8,S,2.7
H03,2021,7,16,18,0.001,0.016,0.014,0.1,0.001,0.003,6,28.7,67.4,S,2.1
H03,2021,7,16,19,0.001,0.013,0.011,0.1,0.001,0.004,7,27.4,73.9,SE,1.4
H03,2021,7,16,20,0.001,0.014,0.01,0.1,0,0.005,6,26.9,73.7,SSE,1.5
H03,2021,7,16,21,0,0.016,0.008,0.1,0,0.006,32,26.1,79.4,SE,1.9
H03,2021,7,16,22,0.001,0.014,0.005,0.1,0.001,0.008,6,25.7,81.3,SE,1.1
H03,2021,7,16,23,0.001,0.014,0.002,0.1,0.002,0.009,5,24.3,86.4,SSE,0.5
H03,2021,7,16,24,0.001,0.013,0.003,0.1,0.001,0.008,6,25.1,83.9,SE,0.8
H03,2021,7,17,1,0,0.015,0,0.1,0.004,0.01,5,23.6,90.6,S,0.5
H03,2021,7,17,2,0,0.014,0.001,0.1,0.001,0.008,5,22.8,94.7,CALM,0
H03,2021,7,17,3,0,0.015,0.001,0.1,0.002,0.006,6,22.1,95.2,CALM,0.2
H03,2021,7,17,4,0.001,0.014,0.001,0.1,0.001,0.004,5,22.1,97.7,CALM,0.2
H03,2021,7,17,5,0.001,0.013,0,0.1,0.001,0.004,5,21.6,97.1,CALM,0
H03,2021,7,17,6,0.001,0.012,0.001,0.1,0.003,0.003,4,23.7,85.3,ENE,1.1
H03,2021,7,17,7,0.001,0.013,0.003,0.1,0.004,0.002,5,25.7,77.2,SE,0.7
H03,2021,7,17,8,0.001,0.016,0.008,0.1,0.005,0.003,5,27.4,61.7,ENE,1.2
H03,2021,7,17,9,0.001,0.012,0.015,0.1,0.003,0.003,4,29.2,53.6,ENE,1.4
H03,2021,7,17,10,0.001,0.011,0.02,0.1,0.001,0.002,7,29.9,57,S,1.5
H03,2021,7,17,11,0.001,0.008,0.019,0.1,0,0.002,6,31.9,53.2,SSE,2.5
H03,2021,7,17,12,0.001,0.008,0.019,0.1,0,0.001,5,32.7,47.4,SE,2.2
H03,2021,7,17,13,0.001,0.008,0.025,0.1,0.001,0.002,6,33,49.6,S,2.5
H03,2021,7,17,14,0.001,0.008,0.027,0.1,0,0.002,3,32.3,52.2,S,3
H03,2021,7,17,15,0,0.014,0.024,0.1,0.001,0.002,3,32,52.2,S,2.7
H03,2021,7,17,16,0.001,0.01,0.022,0.1,0.001,0.001,4,31.1,52.9,SSW,3.1
H03,2021,7,17,17,0.001,0.011,0.024,0.1,0,0.002,4,31,55,S,2.3
H03,2021,7,17,18,0.001,0.01,0.024,0.1,0,0.002,3,29,60.3,S,2.2
H03,2021,7,17,19,0.001,0.013,0.02,0.1,0,0.002,6,27.5,72.6,SSW,1.3
H03,2021,7,17,20,0.001,0.011,0.018,0.1,0,0.003,6,26.3,81.1,SSW,0.8
H03,2021,7,17,21,0.001,0.014,0.016,0.1,0,0.003,5,25.4,87.2,S,0.7
H03,2021,7,17,22,0.001,0.012,0.013,0.1,0,0.004,4,24.8,90.9,SE,0.4
H03,2021,7,17,23,0,0.013,0.012,0.1,0,0.003,4,23.8,92.6,CALM,0.2
H03,2021,7,17,24,0.001,0.014,0.01,0.1,0,0.004,4,24.8,86.9,SE,0.9
H03,2021,7,18,1,0.001,0.013,0.008,0.1,0,0.004,4,23,94.7,CALM,0
H03,2021,7,18,2,0.001,0.014,0.006,0.1,0,0.003,4,24.2,90.1,ENE,0.9
H03,2021,7,18,3,0.001,0.013,0.007,0.1,0,0.002,6,23.3,92.6,ESE,0.3
H03,2021,7,18,4,0,0.013,0.006,0.1,0,0.002,4,23.4,91.3,E,0.7
H03,2021,7,18,5,0,0.009,0.004,0.1,0.001,0.002,4,23.3,89.7,NE,1
H03,2021,7,18,6,0.001,0.013,0.004,0.1,0.001,0.001,5,24.9,80.4,E,0.9
H03,2021,7,18,7,0.001,0.017,0.008,0.1,0.001,0.002,4,26.9,71.4,E,0.9
H03,2021,7,18,8,0.001,0.013,0.011,0.1,0.001,0.001,4,28.9,61,SE,1.3
H03,2021,7,18,9,0.001,0.009,0.014,0.1,0,0.001,4,30.9,58.8,SE,1.8
H03,2021,7,18,10,0.001,0.011,0.015,0.1,0,0.001,6,31.9,55.1,SE,2
H03,2021,7,18,11,0,0.005,0.016,0.1,0.001,0.001,5,32,56.1,SSE,2.1
H03,2021,7,18,12,0,0.012,0.018,0.1,0,0.001,2,32.7,56.9,SSE,2.4
H03,2021,7,18,13,0.001,0.012,0.023,0.1,0,0.001,8,33.2,54.9,SSE,2.7
H03,2021,7,18,14,0.001,0.009,0.024,0.1,0,0.001,4,33.3,57.1,S,2.8
H03,2021,7,18,15,0.001,0.01,0.02,0.1,0,0.001,3,33,55.4,SSE,2.9
H03,2021,7,18,16,0.001,0.015,0.019,0.1,0,0.001,3,32.2,57.8,S,2.8
H03,2021,7,18,17,0.001,0.012,0.016,0.1,0,0.001,5,31.2,62.4,SSW,2.5
H03,2021,7,18,18,0,0.014,0.014,0.1,0,0.001,4,29.2,72.3,S,2
H03,2021,7,18,19,0.001,0.014,0.012,0.1,0,0.002,4,27.9,78.3,S,1.2
H03,2021,7,18,20,0,0.014,0.01,0.1,0,0.002,4,27.3,81.2,SSE,1.4
H03,2021,7,18,21,0.001,0.015,0.009,0.1,0,0.002,4,26.9,85.9,SE,1.1
H03,2021,7,18,22,0.001,0.015,0.008,0.1,0,0.002,4,26.4,88.6,SE,1.1
H03,2021,7,18,23,0,0.017,0.005,0.1,0,0.004,5,26,89.5,SE,0.8
H03,2021,7,18,24,0,0.015,0.005,0.1,0,0.003,3,25.7,89.3,SSE,1
H03,2021,7,19,1,0,0.012,0.004,0.1,0,0.003,3,24.3,95.3,E,0.3
H03,2021,7,19,2,0,0.013,0.002,0.1,0,0.003,2,23.7,96.5,CALM,0.2
H03,2021,7,19,3,0.001,0.011,0.002,0.1,0.001,0.003,2,24.5,95.2,NE,0.5
H03,2021,7,19,4,0,0.012,0.002,0.1,0.001,0.003,4,24.6,93.4,NE,0.6
H03,2021,7,19,5,0.001,0.011,0.001,0.1,0.001,0.003,4,24.2,93.5,ENE,1
H03,2021,7,19,6,0.001,0.01,0.001,0.1,0.003,0.002,3,25.2,87.2,E,0.8
H03,2021,7,19,7,0,0.014,0.003,0.1,0.006,0.003,2,27.2,77.6,ENE,1.3
H03,2021,7,19,8,0.001,0.014,0.009,0.1,0.004,0.003,3,29.3,61.9,NE,1.3
H03,2021,7,19,9,0.001,0.012,0.015,0.1,0.002,0.002,7,30.9,53.2,ESE,0.5
H03,2021,7,19,10,0.001,0.014,0.022,0.1,0.002,0.002,7,31.8,52.5,ENE,0.8
H03,2021,7,19,11,0.001,0.008,0.03,0.1,0.001,0.002,6,32.7,50.3,W,0.9
H03,2021,7,19,12,0.001,0.011,0.041,0.1,0.001,0.003,6,34.4,50.2,SSW,1.2
H03,2021,7,19,13,0.001,0.022,0.065,0.2,0.001,0.006,9,34.9,52.1,SW,2.2
H03,2021,7,19,14,0.001,0.023,0.062,0.2,0.001,0.004,7,33,57,SW,2
H03,2021,7,19,15,0.001,0.022,0.057,0.1,0,0.004,9,34.4,49.3,S,2.2
H03,2021,7,19,16,0.002,0.012,0.04,0.1,0.001,0.005,5,33.9,48,SSW,2.4
H03,2021,7,19,17,0.001,0.006,0.022,0.1,0.001,0.003,1,32.8,49.9,S,2
H03,2021,7,19,18,0.001,0.009,0.019,0.1,0.001,0.003,3,31.4,53.9,S,2
H03,2021,7,19,19,0.001,0.005,0.015,0.1,0,0.004,4,29.9,61.3,SE,2.1
H03,2021,7,19,20,0.001,0.008,0.013,0.1,0,0.004,5,28.7,69.5,SE,2.1
H03,2021,7,19,21,0.001,0.008,0.01,0.1,0,0.004,4,28.2,72.1,SSE,1.2
H03,2021,7,19,22,0.001,0.008,0.011,0.1,0,0.003,3,27.9,76.1,SSE,1.5
H03,2021,7,19,23,0.001,0.014,0.011,0.1,0,0.004,4,27.2,83.3,SSE,0.6
H03,2021,7,19,24,0,0.012,0.009,0.1,0,0.005,4,25.7,91.4,CALM,0.1
H03,2021,7,20,1,***,0.012,0.006,***,***,***,3,24.9,95,W,0.3
H03,2021,7,20,2,0.001,0.011,0.005,0.1,0.001,0.005,3,25.8,92.2,N,0.5
H03,2021,7,20,3,0,0.012,0.002,0.1,0.001,0.007,4,24.7,95.9,CALM,0.2
H03,2021,7,20,4,0.001,0.015,0,0.2,0.002,0.007,4,24.2,97.8,WSW,0.3
H03,2021,7,20,5,0.001,0.014,0,0.2,0.003,0.006,3,24.5,96.7,CALM,0
H03,2021,7,20,6,0.001,0.014,0.001,0.2,0.006,0.006,3,26.1,84.8,ESE,0.8
H03,2021,7,20,7,0.001,0.02,0.004,0.2,0.009,0.006,4,27.2,77.4,ESE,0.8
H03,2021,7,20,8,0.001,0.02,0.011,0.2,0.005,0.006,4,28.9,68.5,SSE,1.1
H03,2021,7,20,9,0.001,0.016,0.019,0.2,0.004,0.007,6,30,60.9,NW,1.1
H03,2021,7,20,10,0.001,0.023,0.034,0.2,0.002,0.007,12,31.7,63,SW,1.4
H03,2021,7,20,11,0.001,0.024,0.057,0.2,0.001,0.006,11,32.3,54.8,SSW,1.6
H03,2021,7,20,12,0,0.037,0.05,0.2,0.001,0.007,11,32.6,62.1,W,2.8
H03,2021,7,20,13,0.001,0.032,0.051,0.1,0.001,0.005,10,32.9,59.9,WSW,2.6
H03,2021,7,20,14,0.001,0.033,0.056,0.1,0.001,0.004,11,32.8,53.7,SSW,2
H03,2021,7,20,15,0.001,0.031,0.053,0.1,0.001,0.004,12,32.7,57.2,SSW,1.8
H03,2021,7,20,16,0.001,0.024,0.045,0.1,0,0.004,6,31.2,64.8,S,2.2
H03,2021,7,20,17,0.001,0.021,0.037,0.1,0,0.004,6,29.6,74.3,SSW,1.9
H03,2021,7,20,18,0.001,0.015,0.036,0.1,0,0.004,6,29.3,69.7,SSE,1.9
H03,2021,7,20,19,0.001,0.014,0.034,0.1,0,0.003,5,28.5,73.1,SE,1.3
H03,2021,7,20,20,0.001,0.011,0.025,0.1,0,0.004,6,27.8,76.5,SSE,1.1
H03,2021,7,20,21,0.001,0.011,0.02,0.1,0,0.004,5,26.7,81.1,SSW,1
H03,2021,7,20,22,0.001,0.009,0.016,0.1,0,0.005,3,26.7,82.2,SSW,1
H03,2021,7,20,23,0.001,0.007,0.014,0.1,0,0.004,3,26.6,81,SSW,0.8
H03,2021,7,20,24,0.001,0.006,0.012,0.1,0,0.004,2,26.6,79.1,SSE,0.9
H03,2021,7,21,1,0.001,0.006,0.008,0.1,0,0.005,4,25.8,82.9,WSW,0.7
H03,2021,7,21,2,0.001,0.006,0.008,0.1,0,0.005,3,26.1,83,SSW,0.3
H03,2021,7,21,3,0.001,0.009,0.005,0.1,0,0.006,4,25.4,88.8,WSW,0.4
H03,2021,7,21,4,0.001,0.007,0.004,0.1,0.001,0.006,3,25.7,87.5,NNW,0.3
H03,2021,7,21,5,0,0.009,0.003,0.1,0.001,0.007,3,25.1,89.6,CALM,0
H03,2021,7,21,6,0.001,0.011,0.003,0.1,0.002,0.006,3,26.6,81.6,ESE,0.6
H03,2021,7,21,7,0.001,0.013,0.005,0.1,0.004,0.007,4,27.3,79.4,E,0.9
H03,2021,7,21,8,0.001,0.015,0.007,0.2,0.005,0.007,4,27.9,69.6,NE,0.4
H03,2021,7,21,9,0.001,0.02,0.014,0.2,0.024,0,6,30.5,51.5,NE,0.8
H03,2021,7,21,10,0.001,0.011,0.027,0.2,0.003,0.005,7,29.7,58.9,NW,0.7
H03,2021,7,21,11,0.001,0.018,0.044,0.2,0.001,0.005,11,32.7,52.8,WSW,1.2
H03,2021,7,21,12,0.001,0.02,0.051,0.1,0.001,0.004,12,33.9,48.9,S,1.3
H03,2021,7,21,13,0.001,0.021,0.054,0.1,0,0.004,10,33,54.6,SW,2.6
H03,2021,7,21,14,0.001,0.021,0.054,0.1,0.001,0.004,10,32.6,53.5,SW,2.5
H03,2021,7,21,15,0.001,0.015,0.047,0.1,0.001,0.003,6,32.9,49.7,SSW,2.3
H03,2021,7,21,16,0.001,0.017,0.043,0.1,0.001,0.003,4,32.4,54,S,1.7
H03,2021,7,21,17,0.001,0.013,0.042,0.1,0,0.003,6,31.8,55.3,S,1.9
H03,2021,7,21,18,0.001,0.01,0.039,0.1,0,0.003,6,29.8,63.2,S,1.7
H03,2021,7,21,19,0.001,0.009,0.029,0.1,0,0.004,5,28.9,65.8,S,1.4
H03,2021,7,21,20,0.001,0.006,0.023,0.1,0,0.004,3,27.9,67.3,S,1.2
H03,2021,7,21,21,0.001,0.01,0.019,0.1,0,0.004,5,27.3,73.1,S,1.7
H03,2021,7,21,22,0,0.009,0.015,0.1,0,0.005,2,27.5,75.6,S,0.9
H03,2021,7,21,23,0.001,0.008,0.016,0.1,0,0.004,3,27.3,77.6,SSE,0.8
H03,2021,7,21,24,0.001,0.01,0.009,0.1,0.001,0.011,4,26.9,79.6,SE,0.8
H03,2021,7,22,1,0.001,0.013,0.009,0.2,0.001,0.011,6,26.9,80,SSE,0.7
H03,2021,7,22,2,0.001,0.007,0.012,0.1,0,0.005,3,25.5,83.7,CALM,0.1
H03,2021,7,22,3,0.001,0.006,0.01,0.1,0,0.006,2,25.4,86.1,CALM,0
H03,2021,7,22,4,0,0.011,0.01,0.1,0,0.005,5,25.1,85.2,N,0.4
H03,2021,7,22,5,0.001,0.007,0.006,0.1,0.001,0.006,4,24,92.4,SW,0.4
H03,2021,7,22,6,0,0.01,0.006,0.1,0.001,0.006,4,25.4,86.8,CALM,0
H03,2021,7,22,7,0.001,0.016,0.01,0.2,0.004,0.007,2,27.9,69.5,NE,0.6
H03,2021,7,22,8,0.001,0.013,0.017,0.1,0.003,0.005,4,29.3,59.1,ENE,1.1
H03,2021,7,22,9,0.001,0.011,0.024,0.1,0.002,0.005,4,30.9,54.2,N,1.4
H03,2021,7,22,10,0.001,0.009,0.037,0.1,0.001,0.003,9,32.2,53.2,WSW,0.9
H03,2021,7,22,11,0.001,0.016,0.046,0.1,0,0.003,9,33,49.9,SSE,1.4
H03,2021,7,22,12,0.001,0.021,0.054,0.2,0.001,0.005,10,32,55.8,SSW,1.8
H03,2021,7,22,13,0.001,0.025,0.059,0.2,0.001,0.005,14,33.2,53.6,SSW,2.4
H03,2021,7,22,14,0.001,0.018,0.054,0.1,0,0.004,9,33.4,51.1,SSW,2.7
H03,2021,7,22,15,0.001,0.019,0.048,0.1,0,0.003,8,31.5,57.3,SSW,2.5
H03,2021,7,22,16,0.001,0.013,0.044,0.1,0,0.003,8,32.9,52.7,S,2.1
H03,2021,7,22,17,0.001,0.01,0.039,0.1,0,0.002,5,30.9,57.8,SSW,2
H03,2021,7,22,18,0.001,0.013,0.033,0.1,0,0.002,5,30.1,60.4,SSE,2
H03,2021,7,22,19,0.001,0.01,0.028,0.1,0,0.003,4,29,66.7,SE,1.2
H03,2021,7,22,20,0.001,0.007,0.022,0.1,0,0.003,3,28.3,71.3,S,1.3
H03,2021,7,22,21,0.001,0.009,0.017,0.1,0,0.004,5,27.9,76.1,SSE,1.4
H03,2021,7,22,22,0.001,0.007,0.016,0.1,0,0.004,2,27.6,76.5,S,0.8
H03,2021,7,22,23,0.001,0.006,0.015,0.1,0,0.003,2,26.9,78.5,S,0.6
H03,2021,7,22,24,0.001,0.008,0.012,0.1,0,0.005,3,27.1,81.8,S,0.6
H03,2021,7,23,1,0.001,0.01,0.012,0.1,0,0.004,3,26.6,81,SSW,0.4
H03,2021,7,23,2,0.001,0.008,0.011,0.1,0,0.004,4,26.1,85.6,CALM,0.1
H03,2021,7,23,3,0.001,0.007,0.009,0.1,0,0.005,3,25.7,89.5,CALM,0.2
H03,2021,7,23,4,0.001,0.01,0.007,0.1,0.001,0.006,5,26.6,82.8,E,0.9
H03,2021,7,23,5,0.001,0.008,0.009,0.1,0,0.004,4,26.3,87.2,ENE,0.6
H03,2021,7,23,6,0.001,0.01,0.006,0.2,0.002,0.005,3,26.7,84.3,NE,0.8
H03,2021,7,23,7,0.001,0.012,0.009,0.1,0.002,0.004,3,27.7,77.8,SE,1
H03,2021,7,23,8,0.001,0.011,0.016,0.1,0.002,0.004,3,28.9,60.7,SSE,0.6
H03,2021,7,23,9,0.001,0.006,0.023,0.1,0.001,0.003,5,29.4,62.5,WNW,0.8
H03,2021,7,23,10,0.001,0.015,0.035,0.1,0.001,0.004,5,30,61.6,SSW,1.3
H03,2021,7,23,11,0.001,0.016,0.042,0.2,0.001,0.005,11,32,52.3,SW,1.3
H03,2021,7,23,12,0.001,0.012,0.05,0.1,0,0.004,11,33.6,48.3,S,1.5
H03,2021,7,23,13,0.001,0.018,0.057,0.2,0,0.004,10,34,52,SW,2
H03,2021,7,23,14,0.001,0.025,0.06,0.2,0,0.004,10,34.3,47.1,S,1.8
H03,2021,7,23,15,0.001,0.018,0.051,0.1,0,0.003,8,32.4,54.7,SSW,2.8
H03,2021,7,23,16,0.001,0.016,0.046,0.1,0,0.003,7,32.7,54.6,S,2.4
H03,2021,7,23,17,0.001,0.012,0.036,0.1,0.001,0.002,4,31.2,58.5,S,1.7
H03,2021,7,23,18,0.001,0.012,0.031,0.1,0,0.002,4,30.3,56.7,S,1.8
H03,2021,7,23,19,0.001,0.008,0.022,0.1,0,0.003,4,28.7,67.1,SSE,1.9
H03,2021,7,23,20,0.001,0.008,0.016,0.1,0,0.003,2,27.5,72.2,SSE,1.9
H03,2021,7,23,21,0.001,0.008,0.012,0.1,0,0.003,3,27,79.6,SE,0.6
H03,2021,7,23,22,0.001,0.006,0.01,0.1,0,0.006,2,26.6,78.3,SE,1.1
H03,2021,7,23,23,0.001,0.007,0.009,0.1,0.001,0.006,3,26.9,77.2,ESE,1.2
H03,2021,7,23,24,0.001,0.008,0.008,0.1,0,0.004,3,26.6,82.9,NE,0.8
H03,2021,7,24,1,0.001,0.008,0.008,0.1,0,0.004,4,26.3,83.1,NE,0.9
H03,2021,7,24,2,0.001,0.01,0.008,0.1,0,0.004,3,26.4,84.6,ENE,0.9
H03,2021,7,24,3,0.001,0.011,0.004,0.1,0.001,0.006,3,25.8,85.9,ENE,1.1
H03,2021,7,24,4,0.001,0.013,0.003,0.2,0.001,0.006,4,25.5,86.4,NE,1
H03,2021,7,24,5,0,0.012,0.002,0.2,0.001,0.005,5,25.1,88.9,CALM,0.2
H03,2021,7,24,6,0.001,0.014,0.002,0.1,0.001,0.004,4,26,83,NE,0.8
H03,2021,7,24,7,0.001,0.014,0.006,0.1,0.003,0.003,3,28.1,72.3,E,0.6
H03,2021,7,24,8,0.001,0.015,0.015,0.1,0.001,0.002,4,29.3,62.5,ESE,0.8
H03,2021,7,24,9,0.001,0.007,0.022,0.1,0.001,0.002,4,30.3,54.3,E,1
H03,2021,7,24,10,0.001,0.01,0.026,0.1,0.001,0.002,4,32,52,S,1
H03,2021,7,24,11,0.001,0.012,0.031,0.1,0.001,0.002,4,31.7,55.3,SW,0.9
H03,2021,7,24,12,0.001,0.007,0.035,0.1,0,0.002,6,33.5,49.8,S,1
H03,2021,7,24,13,0.001,0.023,0.054,0.2,0.001,0.005,10,32.2,58,WSW,1.9
H03,2021,7,24,14,0.001,0.028,0.06,0.2,0,0.004,11,33.4,51.6,SW,2
H03,2021,7,24,15,0.001,0.016,0.047,0.1,0,0.003,8,33.9,50.8,S,2.4
H03,2021,7,24,16,0.001,0.013,0.041,0.1,0,0.002,7,31.2,60,S,2.4
H03,2021,7,24,17,0.001,0.012,0.034,0.1,0,0.002,5,30.8,63.2,SSW,2.5
H03,2021,7,24,18,0.001,0.012,0.025,0.1,0,0.002,2,30.3,61.8,SSE,2.3
H03,2021,7,24,19,0.001,0.007,0.022,0.1,0,0.002,4,28.8,68.4,SSE,2.2
H03,2021,7,24,20,0.001,0.006,0.02,0.1,0,0.002,3,27.6,74.5,SSE,1.8
H03,2021,7,24,21,0.001,0.007,0.016,0.1,0,0.002,4,26.9,82.1,SE,1.2
H03,2021,7,24,22,0.001,0.009,0.014,0.1,0,0.002,4,25.2,95.4,E,1
H03,2021,7,24,23,0,0.003,0.013,0.1,0,0.002,2,24,97.3,SE,0.4
H03,2021,7,24,24,0.001,0.007,0.014,0.1,0,0.002,1,24.2,97.9,SE,0.4
H03,2021,7,25,1,0.001,0.005,0.012,0.1,0,0.002,2,24.2,96.7,NE,0.9
H03,2021,7,25,2,0.001,0.004,0.01,0.1,0,0.002,1,24,95.5,ENE,0.7
H03,2021,7,25,3,0.001,0.006,0.006,0.1,0,0.005,3,24.2,96.1,E,0.4
H03,2021,7,25,4,0.001,0.007,0.003,0.1,0.001,0.005,2,24.3,95.2,ESE,0.3
H03,2021,7,25,5,0,0.007,0.005,0.1,0,0.002,1,24.3,92.8,NE,0.7
H03,2021,7,25,6,0.001,0.01,0.004,0.1,0.001,0.002,3,24.3,91.4,NNE,0.6
H03,2021,7,25,7,0.001,0.01,0.005,0.1,0.001,0.002,2,26.2,80.5,ENE,1.3
H03,2021,7,25,8,0.001,0.013,0.008,0.1,0.002,0.002,2,27.8,68.2,NNE,0.6
H03,2021,7,25,9,0.001,0.008,0.015,0.1,0.001,0.001,4,27.9,70.6,WSW,0.4
H03,2021,7,25,10,0,0.004,0.02,0.1,0.001,0.001,3,29.7,57.2,W,0.5
H03,2021,7,25,11,0.001,0.011,0.025,0.1,0.001,0.001,6,30.9,54,W,1.4
H03,2021,7,25,12,0.001,0.01,0.032,0.1,0,0.001,8,32.6,48.3,SSW,1.3
H03,2021,7,25,13,0.001,0.01,0.036,0.1,0,0.002,4,33.6,51.5,SSW,1.4
H03,2021,7,25,14,0.001,0.014,0.045,0.2,0.001,0.005,5,30.5,61.6,WSW,2.1
H03,2021,7,25,15,0.001,0.017,0.043,0.1,0,0.002,6,32.4,50.6,SSW,2.5
H03,2021,7,25,16,0.001,0.008,0.039,0.1,0,0.002,9,32.4,50.7,SSE,2.5
H03,2021,7,25,17,0.001,0.008,0.035,0.1,0,0.002,6,31.3,49.3,S,2.1
H03,2021,7,25,18,0.001,0.01,0.031,0.1,0,0.002,5,29.8,57.8,S,1.6
H03,2021,7,25,19,0.001,0.015,0.031,0.1,0,0.002,6,28.3,65.6,S,1.4
H03,2021,7,25,20,0.001,0.012,0.032,0.1,0,0.002,6,27.9,70.3,SSE,2
H03,2021,7,25,21,0.001,0.011,0.029,0.1,0,0.002,5,27.4,72.6,SSW,1.2
H03,2021,7,25,22,0.001,0.013,0.026,0.1,0,0.002,7,27.3,75.6,SSW,0.5
H03,2021,7,25,23,0.001,0.012,0.023,0.1,0,0.003,6,26.2,82.7,WSW,0.6
H03,2021,7,25,24,0.001,0.013,0.018,0.2,0,0.005,7,26,86.7,SW,0.4
H03,2021,7,26,1,0.001,0.014,0.016,0.2,0,0.004,6,26.7,80,ENE,0.7
H03,2021,7,26,2,0.001,0.013,0.016,0.1,0,0.003,6,24.8,87.8,CALM,0.2
H03,2021,7,26,3,0.001,0.013,0.011,0.1,0,0.004,7,23.9,93.4,CALM,0
H03,2021,7,26,4,0,0.014,0.007,0.2,0.001,0.005,5,24.6,89.5,ESE,0.5
H03,2021,7,26,5,0,0.016,0.006,0.2,0,0.005,6,24.9,86.9,ENE,1.3
H03,2021,7,26,6,0.001,0.015,0.008,0.1,0.001,0.005,5,25.4,82.6,NE,0.5
H03,2021,7,26,7,0.001,0.016,0.008,0.2,0.002,0.008,5,26.7,76.4,ESE,0.5
H03,2021,7,26,8,0.001,0.021,0.012,0.2,0.005,0.007,5,28,70.4,SE,0.5
H03,2021,7,26,9,0.001,0.017,0.018,0.2,0.004,0.007,5,29.3,62.3,SSW,0.8
H03,2021,7,26,10,0.001,0.014,0.027,0.2,0.003,0.008,8,31.3,49,NNE,1.4
H03,2021,7,26,11,0.001,0.013,0.037,0.2,0.003,0.008,10,33.4,44.2,NW,1.3
H03,2021,7,26,12,0.001,0.015,0.053,0.2,0.001,0.005,8,33.5,41.8,NW,1.6
H03,2021,7,26,13,0.001,0.018,0.058,0.2,0,0.004,9,34.9,42.3,W,1.7
H03,2021,7,26,14,0.001,0.015,0.057,0.2,0.001,0.004,10,35,40.1,WNW,1.5
H03,2021,7,26,15,0.001,0.019,0.058,0.2,0,0.004,10,35,41.2,W,2.3
H03,2021,7,26,16,0.001,0.018,0.059,0.2,0.001,0.005,12,35.6,38.1,WNW,1.6
H03,2021,7,26,17,0.001,0.021,0.053,0.2,0.001,0.008,10,34.9,39.4,WNW,1.1
H03,2021,7,26,18,0.001,0.021,0.049,0.2,0,0.005,11,33.9,44.8,W,2.8
H03,2021,7,26,19,0.001,0.024,0.046,0.2,0,0.005,14,31,64.2,ESE,2.3
H03,2021,7,26,20,0.001,0.021,0.035,0.2,0,0.007,8,28.7,73.4,SE,2.2
H03,2021,7,26,21,0.001,0.02,0.029,0.2,0,0.01,8,27.8,77.1,SE,1.5
H03,2021,7,26,22,0.001,0.02,0.029,0.1,0,0.009,8,27.1,79.6,SE,1.3
H03,2021,7,26,23,0,0.019,0.023,0.2,0,0.012,7,25.8,84.7,SSW,0.3
H03,2021,7,26,24,0.001,0.017,0.022,0.1,0,0.007,8,24.8,91,WSW,0.3
H03,2021,7,27,1,***,0.018,0.017,***,***,***,7,24.2,94.4,CALM,0.1
H03,2021,7,27,2,0.001,0.017,0.014,0.2,0,0.007,8,24.2,92.5,CALM,0.2
H03,2021,7,27,3,0.001,0.02,0.02,0.2,0,0.006,8,26.4,75,WNW,1.1
H03,2021,7,27,4,0.001,0.021,0.022,0.1,0,0.005,11,24.6,83.2,CALM,0.2
H03,2021,7,27,5,0.001,0.021,0.016,0.2,0,0.007,11,24,84.3,N,0.6
H03,2021,7,27,6,0.001,0.025,0.013,0.2,0.001,0.008,13,24.2,85.3,CALM,0.2
H03,2021,7,27,7,0.001,0.024,0.011,0.2,0.004,0.009,11,26.5,72,NE,0.6
H03,2021,7,27,8,0.001,0.025,0.02,0.2,0.006,0.01,10,29.1,56.8,N,1.4
H03,2021,7,27,9,0.001,0.016,0.029,0.2,0.005,0.01,9,30.9,46.5,N,2.2
H03,2021,7,27,10,0.001,0.02,0.036,0.1,0.001,0.003,8,30.9,44.5,N,1.9
H03,2021,7,27,11,0.001,0.017,0.039,0.1,0.002,0.002,10,31.5,43.3,NNE,2.6
H03,2021,7,27,12,0.001,0.014,0.039,0.1,0.001,0.004,11,32.3,42.4,NNE,2
H03,2021,7,27,13,0.001,0.015,0.042,0.1,0.001,0.003,11,33.7,41.4,NE,2.1